Elk City, ID

9:13 AM PST on February 20, 2017 (GMT -0800)
Lowell

Weather History for KP69 - November, 2013

Change the Weather History Date:

Sunday, November 17, 2013

  Actual Average Record
Temperature  
Mean Temperature 38 °F -  
Max Temperature 42 °F 44 °F 55 °F (2004)
Min Temperature 34 °F 32 °F 16 °F (2014)
Degree Days  
Heating Degree Days 28    
Moisture  
Dew Point 34 °F    
Average Humidity 92    
Maximum Humidity 96    
Minimum Humidity 86    
Precipitation  
Precipitation 0.19 in - - ()
Sea Level Pressure  
Sea Level Pressure 30.01 in    
Wind  
Wind Speed 0 mph (NNW)    
Max Wind Speed 5 mph    
Max Gust Speed -    
Averages and records for this station are not official NWS values.
T = Trace of Precipitation, MM = Missing Value Source: NWS Daily Summary

Daily Weather History Graph

Daily Weather History Graph

Search for Another Location

Airport or City:

Trip Planner

Search our weather history database for the weather conditions in past years. The results will help you decide how hot, cold, wet, or windy it might be!

Date:

Astronomy

Nov. 17, 2013 Rise Set
Actual Time 7:44 AM MST 5:08 PM MST
Civil Twilight 7:12 AM MST 5:40 PM MST
Nautical Twilight 6:36 AM MST 6:17 PM MST
Astronomical Twilight 6:00 AM MST 6:52 PM MST
Moon 5:28 PM MST (11/17) 7:42 AM MST (11/17)
Length of Visible Light 10h 28m
Length of Day
9h 23m
Full, 100% of the Moon is Illuminated
Nov 17
Full
Nov 25
Last Quarter
Dec 2
New
Dec 9
First Quarter
Dec 17
Full

Hourly Weather History & Observations

Time (MST) Temp. Windchill Dew Point Humidity Pressure Visibility Wind Dir Wind Speed Gust Speed Precip Events Conditions
12:52 AM 34.0 °F - 33.1 °F 96% 29.82 in - Calm Calm - N/A   Unknown
1:52 AM 35.1 °F - 33.1 °F 92% 29.83 in - Calm Calm - N/A   Unknown
2:52 AM 34.0 °F - 33.1 °F 96% 29.85 in - Calm Calm - 0.05 in   Unknown
3:52 AM 34.0 °F - 32.0 °F 92% 29.87 in - Calm Calm - 0.02 in   Unknown
4:52 AM 34.0 °F - 33.1 °F 96% 29.89 in - Calm Calm - 0.02 in   Unknown
5:52 AM 34.0 °F - 32.0 °F 92% 29.92 in - Calm Calm - 0.02 in   Unknown
6:52 AM 34.0 °F - 33.1 °F 96% 29.96 in - Calm Calm - N/A   Unknown
7:52 AM 34.0 °F - 33.1 °F 96% 29.98 in - Calm Calm - N/A   Unknown
8:52 AM 34.0 °F - 33.1 °F 96% 30.00 in - Calm Calm - N/A   Unknown
9:52 AM 35.1 °F - 33.1 °F 92% 30.03 in - Calm Calm - N/A   Unknown
10:52 AM 35.1 °F - 34.0 °F 96% 30.06 in - Calm Calm - 0.03 in   Unknown
11:52 AM 37.9 °F - 35.1 °F 89% 30.07 in - Calm Calm - 0.05 in   Unknown
12:52 PM 41.0 °F - 37.0 °F 86% 30.06 in - Calm Calm - N/A   Unknown
1:52 PM 41.0 °F - 37.0 °F 86% 30.07 in - Calm Calm - N/A   Unknown
2:52 PM 41.0 °F - 37.9 °F 89% 30.06 in - Calm Calm - N/A   Unknown
3:52 PM 41.0 °F - 37.9 °F 89% 30.06 in - Calm Calm - N/A   Unknown
4:52 PM 39.0 °F - 37.0 °F 93% 30.07 in - Calm Calm - N/A   Unknown
5:52 PM 39.0 °F 36.8 °F 37.0 °F 93% 30.08 in - NNW 3.5 mph - N/A   Unknown
6:52 PM 37.9 °F 35.5 °F 35.1 °F 89% 30.09 in - NW 3.5 mph - N/A   Unknown
7:52 PM 37.0 °F - 35.1 °F 93% 30.10 in - Calm Calm - N/A   Unknown
8:52 PM 36.0 °F - 34.0 °F 93% 30.12 in - Calm Calm - N/A   Unknown
9:52 PM 36.0 °F 32.1 °F 34.0 °F 93% 30.12 in - NNW 4.6 mph - N/A   Unknown
10:52 PM 36.0 °F 33.3 °F 34.0 °F 93% 30.12 in - NNW 3.5 mph - N/A   Unknown
11:52 PM 36.0 °F 33.3 °F 34.0 °F 93% 30.12 in - North 3.5 mph - N/A   Unknown